{"data":{"norad_id":60261,"epoch":"2026-09-21T14:39:39.617280Z","epoch_age_seconds":85433,"freshness":"FRESH","line1":"1 60261U 24131G   26264.61087520 -.00000430  00000+0 -15934-5 0  9990","line2":"2 60261  53.1595 220.3647 0001474  90.1916 269.9256 15.34387680121795","mean_motion":15.3438768,"eccentricity":0.0001474,"inclination_deg":53.1595,"raan_deg":220.3647,"arg_perigee_deg":90.1916,"mean_anomaly_deg":269.9256,"bstar":-1.5934e-6,"rev_number":12179,"period_min":93.84851160953,"perigee_km":461.73151283956,"apogee_km":463.74820333732,"semimajor_km":6840.8768580884,"source":"CELESTRAK","updated_at":"2026-09-22T09:00:49.187290Z"}}